Regional Weather Roundup
Issued by NWS

Home | Current Version | Previous Version | Graphics & Text | Print | Product List | Glossary On
Versions: 1 2 3 4 5 6 7 8 9 10 11 12 13 14 15 16 17 18 19 20 21 22 23 24 25 26 27
000
ASUS45 KBOU 302007
RWRCO

WEATHER ROUNDUP FOR COLORADO
NATIONAL WEATHER SERVICE DENVER/BOULDER CO
200 PM MDT THU OCT 30 2014

NOTE: "FAIR" INDICATES FEW OR NO CLOUDS BELOW 12000 FEET WITH NO
SIGNIFICANT WEATHER AND/OR OBSTRUCTIONS TO VISIBILITY.

COZ001>005-013-030-031-302100-
...NORTHWEST COLORADO...

CITY           SKY/WX    TMP DP  RH WIND       PRES   REMARKS
CRAIG          SUNNY     63  26  24 N6        30.35F
HAYDEN         SUNNY     59  25  27 CALM      30.35F
MEEKER         SUNNY     64  25  22 VRB3      30.33F
MOUNT WERNER   NOT AVBL
STEAMBOAT SPGS SUNNY     56  27  32 S3        30.37F
WALDEN         SUNNY     54  23  30 N5        30.39F
$$

COZ006>008-011-302100-
...WEST CENTRAL VALLEYS...

CITY           SKY/WX    TMP DP  RH WIND       PRES   REMARKS
GRAND JUNCTION SUNNY     63  19  18 VRB6      30.28F
MONTROSE       SUNNY     63  22  20 VRB5      30.33F
EAGLE          SUNNY     57  19  23 CALM      30.38F
RIFLE          SUNNY     63  19  18 CALM      30.30F
DELTA          SUNNY     66  18  16 CALM      30.30F
NUCLA          SUNNY     63  19  19 NW3       30.34F
$$

COZ017>023-064>068-302100-
...SOUTHWEST COLORADO...

CITY           SKY/WX    TMP DP  RH WIND       PRES   REMARKS
DURANGO        SUNNY     64  22  20 W6        30.33F
CORTEZ         SUNNY     64  20  18 SW14      30.31F
PAGOSA SPRINGS SUNNY     64  15  15 W3        30.37F
TELLURIDE      SUNNY     62  17  17 W13       30.44F
WOLF CREEK PAS NOT AVBL
$$

COZ009-010-012-014-032>034-037-058>063-302100-
...CENTRAL COLORADO...

CITY           SKY/WX    TMP DP  RH WIND       PRES   REMARKS
ASPEN          SUNNY     60  23  24 VRB6      30.38F
BUENA VISTA    SUNNY     60  18  19 SE8       30.36F
COPPER MTN     SUNNY     41  19  42 W18G24    30.56S
BERTHOUD PASS  FAIR      32  28  86 NW23G30   30.55F WCI  19
COTTONWOOD PAS SUNNY     59  14  17 SE10      30.45F
GUNNISON       SUNNY     57  19  23 W6        30.40F
KREMMLING        N/A    N/A N/A N/A CALM        N/A
LEADVILLE      SUNNY     52  18  26 MISG      30.44F
MONARCH PASS   SUNNY     43  19  39 SW15G21   30.66F
SALIDA         SUNNY     62  18  18 SE6       30.42F
SUNLIGHT       SUNNY     48  23  37 CALM      30.55F
WILKERSON PASS NOT AVBL
$$

COZ069>075-302100-
...SAN LUIS VALLEY/SANGRE DE CRISTO MOUNTAINS...

CITY           SKY/WX    TMP DP  RH WIND       PRES   REMARKS
ALAMOSA        SUNNY     62  16  16 S5        30.36F
LA VETA PASS   NOT AVBL
SAGUACHE       NOT AVBL
$$

COZ035-036-038>040-302100-
...NORTHERN COLORADO FRONT RANGE...

CITY           SKY/WX    TMP DP  RH WIND       PRES   REMARKS
DENVER INTL AP MOSUNNY   59  26  28 E7        30.33F
DMNS CITY PARK   N/A     62  26  25 NE6G13    30.31F
AURORA         MOSUNNY   60  26  27 VRB3      30.33F
FRONT RANGE AP NOT AVBL
ERIE MUNI ARPT SUNNY     61  24  24 CALM      30.32F
BOULDER MUN AP SUNNY     61  28  29 E6        30.32F
CENTENNIAL     MOSUNNY   59  26  28 VRB7      30.33F
BROOMFIELD     MOSUNNY   59  27  29 E7        30.33F
FORT COLLINS   SUNNY     61  27  27 S7        30.33F
LONGMONT       SUNNY     64  27  24 E3        30.34F
$$

COZ041-046-047-076>085-087-088-302100-
...PIKES PEAK/PALMER DIVIDE AND SOUTHERN FOOTHILLS...

CITY           SKY/WX    TMP DP  RH WIND       PRES   REMARKS
COLO. SPRINGS  MOSUNNY   59  23  25 SE12      30.36F
A. F. ACADEMY  SUNNY     58  22  25 S10       30.35F
ELLICOTT       SUNNY     57  22  25 SE6       30.35F
FALCON         SUNNY     57  22  26 S7        30.38F
FORT CARSON    SUNNY     61  24  24 SE5       30.34F
LIMON          SUNNY     60  25  26 N3        30.34F
MONUMENT HILL  SUNNY     55  25  30 E10       30.36F
TRINIDAD       SUNNY     62  22  21 VRB3      30.34F
$$

COZ042>045-048>051-090-091-302100-
...NORTHEAST COLORADO...

CITY           SKY/WX    TMP DP  RH WIND       PRES   REMARKS
GREELEY ARPT   SUNNY     61  28  29 CALM      30.34F
AKRON          SUNNY     59  28  30 CALM      30.33F
BURLINGTON     SUNNY     63  25  23 N14G21    30.31F
WRAY           SUNNY     67  24  19 N14G22    30.29F
STERLING       NOT AVBL
HOLYOKE        SUNNY     66  28  24 N17       30.29F
FORT MORGAN    SUNNY     63  25  23 SW3G18    30.33F
$$

COZ086-089-092>099-302100-
...SOUTHEAST COLORADO...

CITY           SKY/WX    TMP DP  RH WIND       PRES   REMARKS
PUEBLO         SUNNY     64  23  21 CALM      30.31F
LA JUNTA       SUNNY     65  25  22 CALM      30.31F
LAMAR          SUNNY     68  25  19 NW6       30.27F
SPRINGFIELD      N/A     65  25  22 N10       30.30F
$$



USA.gov is the U.S. government's official web portal to all federal, state and local government web resources and services.